Time,TemperatureF,DewpointF,PressureIn,WindDirection,WindDirectionDegrees,WindSpeedMPH,WindSpeedGustMPH,Humidity,HourlyPrecipIn,Conditions,Clouds,dailyrainin,SoftwareType,DateUTC
2013-07-07 00:01:00,76.7,70.8,30.17,West,263,1.0,2.0,82,0.00,,---,0.00,VWS V14.01,2013-07-07 04:01:00,
2013-07-07 00:02:00,76.6,70.7,30.16,West,263,0.0,1.0,82,0.00,,---,0.00,VWS V14.01,2013-07-07 04:02:00,
2013-07-07 00:07:00,76.4,70.9,30.16,West,263,0.0,1.0,83,0.00,,---,0.00,VWS V14.01,2013-07-07 04:07:00,
2013-07-07 00:12:00,76.3,70.8,30.16,West,263,0.0,1.0,83,0.00,,---,0.00,VWS V14.01,2013-07-07 04:12:00,
2013-07-07 00:17:00,76.1,70.6,30.16,West,264,0.0,1.0,83,0.00,,---,0.00,VWS V14.01,2013-07-07 04:17:00,
2013-07-07 00:22:00,76.1,70.6,30.16,WSW,257,0.0,1.0,83,0.00,,---,0.00,VWS V14.01,2013-07-07 04:22:00,
2013-07-07 00:28:00,76.0,70.5,30.16,West,263,0.0,1.0,83,0.00,,---,0.00,VWS V14.01,2013-07-07 04:28:00,
2013-07-07 00:33:00,75.9,70.4,30.16,West,262,0.0,0.0,83,0.00,,---,0.00,VWS V14.01,2013-07-07 04:33:00,
2013-07-07 00:38:00,75.7,70.5,30.16,West,262,0.0,0.0,84,0.00,,---,0.00,VWS V14.01,2013-07-07 04:38:00,
2013-07-07 00:43:00,75.6,70.4,30.16,West,262,0.0,0.0,84,0.00,,---,0.00,VWS V14.01,2013-07-07 04:43:00,
2013-07-07 00:48:00,75.4,70.2,30.16,West,262,0.0,0.0,84,0.00,,---,0.00,VWS V14.01,2013-07-07 04:48:00,
2013-07-07 00:53:00,75.1,70.3,30.16,West,262,0.0,0.0,85,0.00,,---,0.00,VWS V14.01,2013-07-07 04:53:00,
2013-07-07 00:58:00,74.9,70.1,30.16,West,261,0.0,0.0,85,0.00,,---,0.00,VWS V14.01,2013-07-07 04:58:00,
2013-07-07 01:03:00,74.6,70.1,30.16,West,274,0.0,0.0,86,0.00,,---,0.00,VWS V14.01,2013-07-07 05:03:00,
2013-07-07 01:08:00,74.4,69.9,30.16,West,274,0.0,0.0,86,0.00,,---,0.00,VWS V14.01,2013-07-07 05:08:00,
2013-07-07 01:13:00,74.2,70.1,30.16,West,274,0.0,0.0,87,0.00,,---,0.00,VWS V14.01,2013-07-07 05:13:00,
2013-07-07 01:19:00,73.9,69.8,30.16,West,274,0.0,0.0,87,0.00,,---,0.00,VWS V14.01,2013-07-07 05:19:00,
2013-07-07 01:24:00,73.7,69.6,30.16,West,274,0.0,0.0,87,0.00,,---,0.00,VWS V14.01,2013-07-07 05:24:00,
2013-07-07 01:29:00,73.5,69.7,30.15,West,274,0.0,0.0,88,0.00,,---,0.00,VWS V14.01,2013-07-07 05:29:00,
2013-07-07 01:34:00,73.3,69.9,30.15,West,274,0.0,0.0,89,0.00,,---,0.00,VWS V14.01,2013-07-07 05:34:00,
2013-07-07 01:39:00,73.3,69.9,30.16,West,274,0.0,0.0,89,0.00,,---,0.00,VWS V14.01,2013-07-07 05:39:00,
2013-07-07 01:44:00,73.1,69.7,30.16,West,274,0.0,0.0,89,0.00,,---,0.00,VWS V14.01,2013-07-07 05:44:00,
2013-07-07 01:49:00,73.0,69.9,30.16,West,274,0.0,0.0,90,0.00,,---,0.00,VWS V14.01,2013-07-07 05:49:00,
2013-07-07 01:54:00,73.0,69.9,30.15,West,274,0.0,0.0,90,0.00,,---,0.00,VWS V14.01,2013-07-07 05:54:00,
2013-07-07 01:59:00,72.9,70.1,30.15,West,274,0.0,0.0,91,0.00,,---,0.00,VWS V14.01,2013-07-07 05:59:00,
2013-07-07 02:04:00,72.9,69.8,30.15,West,273,0.0,0.0,90,0.00,,---,0.00,VWS V14.01,2013-07-07 06:04:00,
2013-07-07 02:09:00,72.9,69.8,30.15,West,273,0.0,0.0,90,0.00,,---,0.00,VWS V14.01,2013-07-07 06:09:00,
2013-07-07 02:14:00,72.8,70.0,30.15,West,274,0.0,0.0,91,0.00,,---,0.00,VWS V14.01,2013-07-07 06:14:00,
2013-07-07 02:19:00,72.7,69.9,30.15,West,274,0.0,0.0,91,0.00,,---,0.00,VWS V14.01,2013-07-07 06:19:00,
2013-07-07 02:24:00,72.5,69.7,30.14,West,274,0.0,0.0,91,0.00,,---,0.00,VWS V14.01,2013-07-07 06:24:00,
2013-07-07 02:29:00,72.5,70.1,30.14,West,273,0.0,0.0,92,0.00,,---,0.00,VWS V14.01,2013-07-07 06:29:00,
2013-07-07 02:34:00,72.4,69.9,30.14,West,273,0.0,0.0,92,0.00,,---,0.00,VWS V14.01,2013-07-07 06:34:00,
2013-07-07 02:39:00,72.3,69.8,30.14,West,273,0.0,0.0,92,0.00,,---,0.00,VWS V14.01,2013-07-07 06:39:00,
2013-07-07 02:45:00,72.2,69.8,30.14,West,273,0.0,0.0,92,0.00,,---,0.00,VWS V14.01,2013-07-07 06:45:00,
2013-07-07 02:50:00,72.1,69.7,30.14,West,273,0.0,0.0,92,0.00,,---,0.00,VWS V14.01,2013-07-07 06:50:00,
2013-07-07 02:55:00,71.9,69.4,30.14,West,273,0.0,0.0,92,0.00,,---,0.00,VWS V14.01,2013-07-07 06:55:00,
2013-07-07 03:00:00,71.8,69.7,30.13,West,273,0.0,0.0,93,0.00,,---,0.00,VWS V14.01,2013-07-07 07:00:00,
2013-07-07 03:05:00,71.7,69.6,30.13,West,273,0.0,0.0,93,0.00,,---,0.00,VWS V14.01,2013-07-07 07:05:00,
2013-07-07 03:10:00,71.5,69.4,30.13,West,274,0.0,0.0,93,0.00,,---,0.00,VWS V14.01,2013-07-07 07:10:00,
2013-07-07 03:15:00,71.4,69.6,30.13,West,273,0.0,0.0,94,0.00,,---,0.00,VWS V14.01,2013-07-07 07:15:00,
2013-07-07 03:20:00,71.3,69.5,30.13,West,273,0.0,0.0,94,0.00,,---,0.00,VWS V14.01,2013-07-07 07:20:00,
2013-07-07 03:25:00,71.1,69.3,30.13,West,274,0.0,0.0,94,0.00,,---,0.00,VWS V14.01,2013-07-07 07:25:00,
2013-07-07 03:30:00,71.0,69.2,30.13,West,273,0.0,0.0,94,0.00,,---,0.00,VWS V14.01,2013-07-07 07:30:00,
2013-07-07 03:35:00,70.9,69.1,30.12,West,273,0.0,0.0,94,0.00,,---,0.00,VWS V14.01,2013-07-07 07:35:00,
2013-07-07 03:41:00,70.7,68.9,30.12,West,273,0.0,0.0,94,0.00,,---,0.00,VWS V14.01,2013-07-07 07:41:00,
2013-07-07 03:46:00,70.6,69.1,30.13,West,273,0.0,0.0,95,0.00,,---,0.00,VWS V14.01,2013-07-07 07:46:00,
2013-07-07 03:51:00,70.6,69.1,30.13,West,273,0.0,0.0,95,0.00,,---,0.00,VWS V14.01,2013-07-07 07:51:00,
2013-07-07 03:56:00,70.6,69.1,30.13,West,273,0.0,0.0,95,0.00,,---,0.00,VWS V14.01,2013-07-07 07:56:00,
2013-07-07 04:01:00,70.5,69.0,30.13,West,273,0.0,0.0,95,0.00,,---,0.00,VWS V14.01,2013-07-07 08:01:00,
2013-07-07 04:06:00,70.4,68.9,30.13,West,273,0.0,0.0,95,0.00,,---,0.00,VWS V14.01,2013-07-07 08:06:00,
2013-07-07 04:11:00,70.3,69.1,30.13,West,273,0.0,0.0,96,0.00,,---,0.00,VWS V14.01,2013-07-07 08:11:00,
2013-07-07 04:16:00,70.2,69.0,30.13,West,274,0.0,0.0,96,0.00,,---,0.00,VWS V14.01,2013-07-07 08:16:00,
2013-07-07 04:21:00,70.1,68.9,30.13,West,273,0.0,0.0,96,0.00,,---,0.00,VWS V14.01,2013-07-07 08:21:00,
2013-07-07 04:26:00,70.1,68.9,30.13,West,273,0.0,0.0,96,0.00,,---,0.00,VWS V14.01,2013-07-07 08:26:00,
2013-07-07 04:32:00,70.2,69.3,30.13,West,273,0.0,0.0,97,0.00,,---,0.00,VWS V14.01,2013-07-07 08:32:00,
2013-07-07 04:37:00,70.2,69.0,30.13,West,273,0.0,0.0,96,0.00,,---,0.00,VWS V14.01,2013-07-07 08:37:00,
2013-07-07 04:42:00,70.2,69.3,30.13,West,273,0.0,0.0,97,0.00,,---,0.00,VWS V14.01,2013-07-07 08:42:00,
2013-07-07 04:47:00,70.1,69.2,30.13,West,273,0.0,0.0,97,0.00,,---,0.00,VWS V14.01,2013-07-07 08:47:00,
2013-07-07 04:52:00,70.0,69.1,30.14,West,273,0.0,0.0,97,0.00,,---,0.00,VWS V14.01,2013-07-07 08:52:00,
2013-07-07 04:57:00,69.9,69.0,30.13,West,273,0.0,0.0,97,0.00,,---,0.00,VWS V14.01,2013-07-07 08:57:00,
2013-07-07 05:02:00,69.9,69.0,30.13,West,273,0.0,0.0,97,0.00,,---,0.00,VWS V14.01,2013-07-07 09:02:00,
2013-07-07 05:07:00,69.8,68.9,30.13,West,273,0.0,0.0,97,0.00,,---,0.00,VWS V14.01,2013-07-07 09:07:00,
2013-07-07 05:12:00,69.8,68.9,30.13,West,273,0.0,0.0,97,0.00,,---,0.00,VWS V14.01,2013-07-07 09:12:00,
2013-07-07 05:17:00,69.8,68.9,30.13,West,273,0.0,0.0,97,0.00,,---,0.00,VWS V14.01,2013-07-07 09:17:00,
2013-07-07 05:22:00,69.8,68.9,30.13,West,272,0.0,0.0,97,0.00,,---,0.00,VWS V14.01,2013-07-07 09:22:00,
2013-07-07 05:27:00,69.9,69.3,30.13,West,273,0.0,0.0,98,0.00,,---,0.00,VWS V14.01,2013-07-07 09:27:00,
2013-07-07 05:33:00,69.9,69.3,30.14,West,273,0.0,0.0,98,0.00,,---,0.00,VWS V14.01,2013-07-07 09:33:00,
2013-07-07 05:38:00,69.9,69.3,30.14,West,273,0.0,0.0,98,0.00,,---,0.00,VWS V14.01,2013-07-07 09:38:00,
2013-07-07 05:43:00,69.9,69.3,30.14,West,274,0.0,0.0,98,0.00,,---,0.00,VWS V14.01,2013-07-07 09:43:00,
2013-07-07 05:48:00,69.8,69.2,30.14,West,273,0.0,0.0,98,0.00,,---,0.00,VWS V14.01,2013-07-07 09:48:00,
2013-07-07 05:53:00,69.8,69.2,30.14,West,273,0.0,0.0,98,0.00,,---,0.00,VWS V14.01,2013-07-07 09:53:00,
2013-07-07 05:58:00,69.8,69.2,30.14,West,273,0.0,0.0,98,0.00,,---,0.00,VWS V14.01,2013-07-07 09:58:00,
2013-07-07 06:03:00,69.7,69.1,30.14,West,273,0.0,0.0,98,0.00,,---,0.00,VWS V14.01,2013-07-07 10:03:00,
2013-07-07 06:08:00,69.7,69.1,30.14,West,274,0.0,0.0,98,0.00,,---,0.00,VWS V14.01,2013-07-07 10:08:00,
2013-07-07 06:13:00,69.8,69.2,30.15,West,273,0.0,0.0,98,0.00,,---,0.00,VWS V14.01,2013-07-07 10:13:00,
2013-07-07 06:18:00,69.8,69.2,30.15,West,273,0.0,0.0,98,0.00,,---,0.00,VWS V14.01,2013-07-07 10:18:00,
2013-07-07 06:23:00,69.8,69.2,30.15,West,273,0.0,0.0,98,0.00,,---,0.00,VWS V14.01,2013-07-07 10:23:00,
2013-07-07 06:29:00,69.9,69.3,30.15,West,273,0.0,0.0,98,0.00,,---,0.00,VWS V14.01,2013-07-07 10:29:00,
2013-07-07 06:34:00,70.0,69.4,30.15,West,273,0.0,0.0,98,0.00,,---,0.00,VWS V14.01,2013-07-07 10:34:00,
2013-07-07 06:39:00,70.1,69.5,30.15,West,264,0.0,0.0,98,0.00,,---,0.00,VWS V14.01,2013-07-07 10:39:00,
2013-07-07 06:44:00,70.2,69.6,30.15,West,264,0.0,0.0,98,0.00,,---,0.00,VWS V14.01,2013-07-07 10:44:00,
2013-07-07 06:49:00,70.3,69.7,30.15,West,264,0.0,0.0,98,0.00,,---,0.00,VWS V14.01,2013-07-07 10:49:00,
2013-07-07 06:54:00,70.4,69.8,30.15,West,264,0.0,0.0,98,0.00,,---,0.00,VWS V14.01,2013-07-07 10:54:00,
2013-07-07 06:59:00,70.5,69.9,30.15,West,264,0.0,0.0,98,0.00,,---,0.00,VWS V14.01,2013-07-07 10:59:00,
2013-07-07 07:04:00,70.6,70.0,30.15,West,264,0.0,0.0,98,0.00,,---,0.00,VWS V14.01,2013-07-07 11:04:00,
2013-07-07 07:09:00,70.8,70.5,30.16,West,264,0.0,0.0,99,0.00,,---,0.00,VWS V14.01,2013-07-07 11:09:00,
2013-07-07 07:14:00,70.9,70.6,30.16,West,264,0.0,0.0,99,0.00,,---,0.00,VWS V14.01,2013-07-07 11:14:00,
2013-07-07 07:20:00,71.1,70.8,30.16,West,264,0.0,0.0,99,0.00,,---,0.00,VWS V14.01,2013-07-07 11:20:00,
2013-07-07 07:25:00,71.2,70.9,30.16,SSW,204,0.0,0.0,99,0.00,,---,0.00,VWS V14.01,2013-07-07 11:25:00,
2013-07-07 07:30:00,71.4,71.1,30.16,SSW,204,0.0,0.0,99,0.00,,---,0.00,VWS V14.01,2013-07-07 11:30:00,
2013-07-07 07:35:00,71.6,71.3,30.16,SSW,204,0.0,0.0,99,0.00,,---,0.00,VWS V14.01,2013-07-07 11:35:00,
2013-07-07 07:40:00,71.8,71.5,30.16,SSW,204,0.0,1.0,99,0.00,,---,0.00,VWS V14.01,2013-07-07 11:40:00,
2013-07-07 07:45:00,72.0,71.7,30.16,South,169,0.0,1.0,99,0.00,,---,0.00,VWS V14.01,2013-07-07 11:45:00,
2013-07-07 07:50:00,72.2,71.6,30.16,South,177,1.0,1.0,98,0.00,,---,0.00,VWS V14.01,2013-07-07 11:50:00,
2013-07-07 07:55:00,72.6,72.0,30.16,SSE,160,0.0,1.0,98,0.00,,---,0.00,VWS V14.01,2013-07-07 11:55:00,
2013-07-07 08:00:00,72.8,72.2,30.15,SSE,163,0.0,1.0,98,0.00,,---,0.00,VWS V14.01,2013-07-07 12:00:00,
2013-07-07 08:06:00,73.1,72.2,30.16,SSW,207,1.0,1.0,97,0.00,,---,0.00,VWS V14.01,2013-07-07 12:06:00,
2013-07-07 08:11:00,73.4,72.5,30.15,NE,44,0.0,2.0,97,0.00,,---,0.00,VWS V14.01,2013-07-07 12:11:00,
2013-07-07 08:16:00,73.7,72.5,30.16,SSW,211,0.0,2.0,96,0.00,,---,0.00,VWS V14.01,2013-07-07 12:16:00,
2013-07-07 08:21:00,74.1,72.9,30.16,SSW,200,0.0,2.0,96,0.00,,---,0.00,VWS V14.01,2013-07-07 12:21:00,
2013-07-07 08:26:00,74.5,73.0,30.15,SW,224,2.0,2.0,95,0.00,,---,0.00,VWS V14.01,2013-07-07 12:26:00,
2013-07-07 08:31:00,74.8,73.0,30.16,SW,224,1.0,1.0,94,0.00,,---,0.00,VWS V14.01,2013-07-07 12:31:00,
2013-07-07 08:36:00,75.2,73.0,30.16,WSW,242,2.0,2.0,93,0.00,,---,0.00,VWS V14.01,2013-07-07 12:36:00,
2013-07-07 08:41:00,75.6,73.1,30.16,NE,37,1.0,2.0,92,0.00,,---,0.00,VWS V14.01,2013-07-07 12:41:00,
2013-07-07 08:47:00,75.9,73.4,30.16,SE,124,1.0,3.0,92,0.00,,---,0.00,VWS V14.01,2013-07-07 12:47:00,
2013-07-07 08:52:00,76.2,73.1,30.16,SSW,205,1.0,3.0,90,0.00,,---,0.00,VWS V14.01,2013-07-07 12:52:00,
2013-07-07 08:57:00,76.5,73.0,30.16,South,190,1.0,3.0,89,0.00,,---,0.00,VWS V14.01,2013-07-07 12:57:00,
2013-07-07 09:02:00,76.7,73.2,30.16,SE,127,2.0,2.0,89,0.00,,---,0.00,VWS V14.01,2013-07-07 13:02:00,
2013-07-07 09:07:00,77.0,73.2,30.16,SW,215,2.0,2.0,88,0.00,,---,0.00,VWS V14.01,2013-07-07 13:07:00,
2013-07-07 09:12:00,77.3,73.1,30.16,SSW,207,2.0,3.0,87,0.00,,---,0.00,VWS V14.01,2013-07-07 13:12:00,
2013-07-07 09:17:00,77.5,73.3,30.16,WSW,242,1.0,3.0,87,0.00,,---,0.00,VWS V14.01,2013-07-07 13:17:00,
2013-07-07 09:23:00,77.9,73.4,30.16,SSE,155,1.0,3.0,86,0.00,,---,0.00,VWS V14.01,2013-07-07 13:23:00,
2013-07-07 09:28:00,78.2,73.7,30.16,South,187,0.0,3.0,86,0.00,,---,0.00,VWS V14.01,2013-07-07 13:28:00,
2013-07-07 09:33:00,78.4,73.5,30.16,WSW,257,0.0,2.0,85,0.00,,---,0.00,VWS V14.01,2013-07-07 13:33:00,
2013-07-07 09:38:00,78.5,73.6,30.16,SW,218,1.0,3.0,85,0.00,,---,0.00,VWS V14.01,2013-07-07 13:38:00,
2013-07-07 09:43:00,78.7,73.1,30.15,South,172,2.0,3.0,83,0.00,,---,0.00,VWS V14.01,2013-07-07 13:43:00,
2013-07-07 09:48:00,78.8,73.2,30.15,South,174,0.0,3.0,83,0.00,,---,0.00,VWS V14.01,2013-07-07 13:48:00,
2013-07-07 09:53:00,79.0,73.4,30.15,SE,140,1.0,3.0,83,0.00,,---,0.00,VWS V14.01,2013-07-07 13:53:00,
2013-07-07 09:58:00,79.0,73.4,30.15,SSW,201,1.0,3.0,83,0.00,,---,0.00,VWS V14.01,2013-07-07 13:58:00,
2013-07-07 10:03:00,79.1,73.5,30.15,SW,214,1.0,1.0,83,0.00,,---,0.00,VWS V14.01,2013-07-07 14:03:00,
2013-07-07 10:08:00,79.4,73.4,30.15,SSW,210,1.0,2.0,82,0.00,,---,0.00,VWS V14.01,2013-07-07 14:08:00,
2013-07-07 10:13:00,79.5,73.9,30.15,SSW,212,1.0,2.0,83,0.00,,---,0.00,VWS V14.01,2013-07-07 14:13:00,
2013-07-07 10:18:00,79.3,74.1,30.15,NNE,15,0.0,2.0,84,0.00,,---,0.00,VWS V14.01,2013-07-07 14:18:00,
2013-07-07 10:24:00,79.4,74.2,30.15,SSE,167,1.0,2.0,84,0.00,,---,0.00,VWS V14.01,2013-07-07 14:24:00,
2013-07-07 10:29:00,79.6,74.0,30.15,SSE,159,0.0,3.0,83,0.00,,---,0.00,VWS V14.01,2013-07-07 14:29:00,
2013-07-07 10:34:00,80.1,74.5,30.15,SW,221,0.0,1.0,83,0.00,,---,0.00,VWS V14.01,2013-07-07 14:34:00,
2013-07-07 10:39:00,80.9,74.5,30.15,South,174,2.0,2.0,81,0.00,,---,0.00,VWS V14.01,2013-07-07 14:39:00,
2013-07-07 10:44:00,81.1,74.0,30.15,South,173,1.0,2.0,79,0.00,,---,0.00,VWS V14.01,2013-07-07 14:44:00,
2013-07-07 10:49:00,81.2,74.1,30.15,South,186,0.0,2.0,79,0.00,,---,0.00,VWS V14.01,2013-07-07 14:49:00,
2013-07-07 10:54:00,81.2,74.4,30.15,SSW,201,0.0,2.0,80,0.00,,---,0.00,VWS V14.01,2013-07-07 14:54:00,
2013-07-07 10:59:00,81.7,74.6,30.15,SE,143,0.0,3.0,79,0.00,,---,0.00,VWS V14.01,2013-07-07 14:59:00,
2013-07-07 11:04:00,82.2,74.3,30.15,SSE,159,1.0,5.0,77,0.00,,---,0.00,VWS V14.01,2013-07-07 15:04:00,
2013-07-07 11:09:00,83.0,74.7,30.15,SE,142,1.0,5.0,76,0.00,,---,0.00,VWS V14.01,2013-07-07 15:09:00,
2013-07-07 11:14:00,83.8,74.6,30.15,SSE,167,1.0,5.0,74,0.00,,---,0.00,VWS V14.01,2013-07-07 15:14:00,
2013-07-07 11:19:00,84.1,75.3,30.15,NNE,20,2.0,5.0,75,0.00,,---,0.00,VWS V14.01,2013-07-07 15:19:00,
2013-07-07 11:24:00,83.6,75.2,30.15,West,265,0.0,5.0,76,0.00,,---,0.00,VWS V14.01,2013-07-07 15:24:00,
2013-07-07 11:29:00,82.9,74.9,30.15,WNW,285,1.0,5.0,77,0.00,,---,0.00,VWS V14.01,2013-07-07 15:29:00,
2013-07-07 11:34:00,82.6,75.1,30.15,WSW,257,0.0,2.0,78,0.00,,---,0.00,VWS V14.01,2013-07-07 15:34:00,
2013-07-07 11:39:00,82.7,75.5,30.15,North,9,1.0,2.0,79,0.00,,---,0.00,VWS V14.01,2013-07-07 15:39:00,
2013-07-07 11:44:00,83.8,75.0,30.15,West,262,1.0,2.0,75,0.00,,---,0.00,VWS V14.01,2013-07-07 15:44:00,
2013-07-07 11:50:00,84.0,75.2,30.15,West,274,1.0,2.0,75,0.00,,---,0.00,VWS V14.01,2013-07-07 15:50:00,
2013-07-07 11:55:00,83.6,74.8,30.15,WSW,252,1.0,2.0,75,0.00,,---,0.00,VWS V14.01,2013-07-07 15:55:00,
2013-07-07 12:00:00,83.5,75.5,30.15,West,271,0.0,2.0,77,0.00,,---,0.00,VWS V14.01,2013-07-07 16:00:00,
2013-07-07 12:05:00,84.6,75.4,30.15,SSE,162,0.0,2.0,74,0.00,,---,0.00,VWS V14.01,2013-07-07 16:05:00,
2013-07-07 12:10:00,85.2,75.6,30.15,West,269,2.0,3.0,73,0.00,,---,0.00,VWS V14.01,2013-07-07 16:10:00,
2013-07-07 12:15:00,85.7,76.1,30.14,West,275,0.0,3.0,73,0.00,,---,0.00,VWS V14.01,2013-07-07 16:15:00,
2013-07-07 12:20:00,86.0,75.5,30.14,SSW,198,1.0,4.0,71,0.00,,---,0.00,VWS V14.01,2013-07-07 16:20:00,
2013-07-07 12:25:00,86.3,76.2,30.14,SW,214,1.0,4.0,72,0.00,,---,0.00,VWS V14.01,2013-07-07 16:25:00,
2013-07-07 12:30:00,86.8,74.5,30.14,West,265,1.0,4.0,67,0.00,,---,0.00,VWS V14.01,2013-07-07 16:30:00,
2013-07-07 12:35:00,87.4,75.6,30.14,WNW,284,0.0,3.0,68,0.00,,---,0.00,VWS V14.01,2013-07-07 16:35:00,
2013-07-07 12:41:00,87.6,75.3,30.14,SSW,204,1.0,3.0,67,0.00,,---,0.00,VWS V14.01,2013-07-07 16:41:00,
2013-07-07 12:46:00,88.0,76.1,30.14,NNW,340,1.0,3.0,68,0.00,,---,0.00,VWS V14.01,2013-07-07 16:46:00,
2013-07-07 12:51:00,88.2,76.3,30.13,West,266,0.0,3.0,68,0.00,,---,0.00,VWS V14.01,2013-07-07 16:51:00,
2013-07-07 12:56:00,88.6,76.7,30.13,South,184,0.0,3.0,68,0.00,,---,0.00,VWS V14.01,2013-07-07 16:56:00,
2013-07-07 13:01:00,89.2,76.8,30.12,NNW,338,2.0,3.0,67,0.00,,---,0.00,VWS V14.01,2013-07-07 17:01:00,
2013-07-07 13:06:00,89.3,76.5,30.12,SE,138,0.0,2.0,66,0.00,,---,0.00,VWS V14.01,2013-07-07 17:06:00,
2013-07-07 13:11:00,89.5,76.2,30.12,SSW,205,1.0,3.0,65,0.00,,---,0.00,VWS V14.01,2013-07-07 17:11:00,
2013-07-07 13:16:00,89.7,76.4,30.12,SSW,194,2.0,3.0,65,0.00,,---,0.00,VWS V14.01,2013-07-07 17:16:00,
2013-07-07 13:21:00,89.3,76.5,30.12,SE,143,1.0,3.0,66,0.00,,---,0.00,VWS V14.01,2013-07-07 17:21:00,
2013-07-07 13:26:00,89.2,76.4,30.12,WSW,248,0.0,3.0,66,0.00,,---,0.00,VWS V14.01,2013-07-07 17:26:00,
2013-07-07 13:31:00,89.7,76.4,30.12,WNW,302,1.0,2.0,65,0.00,,---,0.00,VWS V14.01,2013-07-07 17:31:00,
2013-07-07 13:36:00,89.1,76.7,30.12,WSW,255,2.0,3.0,67,0.00,,---,0.00,VWS V14.01,2013-07-07 17:36:00,
2013-07-07 13:42:00,88.9,75.6,30.11,West,279,1.0,3.0,65,0.00,,---,0.00,VWS V14.01,2013-07-07 17:42:00,
2013-07-07 13:47:00,88.6,75.8,30.11,ENE,63,2.0,3.0,66,0.00,,---,0.00,VWS V14.01,2013-07-07 17:47:00,
2013-07-07 13:52:00,88.7,75.9,30.11,NW,323,1.0,4.0,66,0.00,,---,0.00,VWS V14.01,2013-07-07 17:52:00,
2013-07-07 13:57:00,88.7,75.9,30.11,SSW,198,1.0,4.0,66,0.00,,---,0.00,VWS V14.01,2013-07-07 17:57:00,
2013-07-07 14:02:00,88.8,76.0,30.11,SSW,201,1.0,2.0,66,0.00,,---,0.00,VWS V14.01,2013-07-07 18:02:00,
2013-07-07 14:07:00,89.2,75.4,30.11,WSW,257,1.0,3.0,64,0.00,,---,0.00,VWS V14.01,2013-07-07 18:07:00,
2013-07-07 14:12:00,89.6,75.8,30.11,SSW,203,1.0,3.0,64,0.00,,---,0.00,VWS V14.01,2013-07-07 18:12:00,
2013-07-07 14:17:00,89.5,76.2,30.10,SSE,166,0.0,3.0,65,0.00,,---,0.00,VWS V14.01,2013-07-07 18:17:00,
2013-07-07 14:22:00,89.7,75.9,30.10,SW,215,1.0,3.0,64,0.00,,---,0.00,VWS V14.01,2013-07-07 18:22:00,
2013-07-07 14:27:00,89.4,75.2,30.10,SSW,193,0.0,3.0,63,0.00,,---,0.00,VWS V14.01,2013-07-07 18:27:00,
2013-07-07 14:32:00,89.2,75.4,30.10,SE,143,2.0,4.0,64,0.00,,---,0.00,VWS V14.01,2013-07-07 18:32:00,
2013-07-07 14:37:00,89.0,76.2,30.10,SSE,163,1.0,4.0,66,0.00,,---,0.00,VWS V14.01,2013-07-07 18:37:00,
2013-07-07 14:43:00,89.5,76.2,30.10,South,175,1.0,4.0,65,0.00,,---,0.00,VWS V14.01,2013-07-07 18:43:00,
2013-07-07 14:48:00,89.9,76.6,30.09,WSW,245,1.0,4.0,65,0.00,,---,0.00,VWS V14.01,2013-07-07 18:48:00,
2013-07-07 14:53:00,90.2,75.4,30.09,West,274,1.0,4.0,62,0.00,,---,0.00,VWS V14.01,2013-07-07 18:53:00,
2013-07-07 14:58:00,90.3,75.0,30.09,SE,136,0.0,4.0,61,0.00,,---,0.00,VWS V14.01,2013-07-07 18:58:00,
2013-07-07 15:03:00,90.9,76.6,30.09,SSW,193,3.0,3.0,63,0.00,,---,0.00,VWS V14.01,2013-07-07 19:03:00,
2013-07-07 15:08:00,90.9,76.1,30.09,SSW,208,1.0,3.0,62,0.00,,---,0.00,VWS V14.01,2013-07-07 19:08:00,
2013-07-07 15:13:00,91.1,76.3,30.09,WNW,290,1.0,3.0,62,0.00,,---,0.00,VWS V14.01,2013-07-07 19:13:00,
2013-07-07 15:18:00,89.5,74.8,30.09,SSE,167,2.0,3.0,62,0.00,,---,0.00,VWS V14.01,2013-07-07 19:18:00,
2013-07-07 15:23:00,88.8,76.0,30.08,SSE,159,0.0,3.0,66,0.00,,---,0.00,VWS V14.01,2013-07-07 19:23:00,
2013-07-07 15:28:00,89.6,75.3,30.08,South,191,1.0,3.0,63,0.00,,---,0.00,VWS V14.01,2013-07-07 19:28:00,
2013-07-07 15:33:00,89.9,75.6,30.08,SW,217,2.0,2.0,63,0.00,,---,0.00,VWS V14.01,2013-07-07 19:33:00,
2013-07-07 15:38:00,89.4,75.2,30.08,ESE,108,0.0,3.0,63,0.00,,---,0.00,VWS V14.01,2013-07-07 19:38:00,
2013-07-07 15:43:00,88.7,75.4,30.08,SW,229,2.0,3.0,65,0.00,,---,0.00,VWS V14.01,2013-07-07 19:43:00,
2013-07-07 15:48:00,88.8,76.0,30.08,SSW,211,1.0,3.0,66,0.00,,---,0.00,VWS V14.01,2013-07-07 19:48:00,
2013-07-07 15:53:00,89.3,75.1,30.07,WSW,240,0.0,3.0,63,0.00,,---,0.00,VWS V14.01,2013-07-07 19:53:00,
2013-07-07 15:59:00,89.6,75.3,30.07,SW,218,1.0,3.0,63,0.00,,---,0.00,VWS V14.01,2013-07-07 19:59:00,
2013-07-07 16:04:00,89.3,75.1,30.07,WNW,297,1.0,2.0,63,0.00,,---,0.00,VWS V14.01,2013-07-07 20:04:00,
2013-07-07 16:09:00,88.8,74.1,30.07,WSW,245,1.0,3.0,62,0.00,,---,0.00,VWS V14.01,2013-07-07 20:09:00,
2013-07-07 16:14:00,88.8,74.6,30.07,SSW,205,1.0,3.0,63,0.00,,---,0.00,VWS V14.01,2013-07-07 20:14:00,
2013-07-07 16:19:00,88.3,74.6,30.07,WNW,286,0.0,3.0,64,0.00,,---,0.00,VWS V14.01,2013-07-07 20:19:00,
2013-07-07 16:24:00,88.3,75.5,30.06,WSW,255,1.0,3.0,66,0.00,,---,0.00,VWS V14.01,2013-07-07 20:24:00,
2013-07-07 16:29:00,88.5,75.2,30.06,SSE,155,1.0,3.0,65,0.00,,---,0.00,VWS V14.01,2013-07-07 20:29:00,
2013-07-07 16:34:00,88.5,74.8,30.06,SSW,208,0.0,3.0,64,0.00,,---,0.00,VWS V14.01,2013-07-07 20:34:00,
2013-07-07 16:39:00,88.4,74.7,30.06,West,276,1.0,3.0,64,0.00,,---,0.00,VWS V14.01,2013-07-07 20:39:00,
2013-07-07 16:44:00,88.3,75.1,30.05,WSW,252,0.0,3.0,65,0.00,,---,0.00,VWS V14.01,2013-07-07 20:44:00,
2013-07-07 16:49:00,88.4,75.1,30.05,East,94,1.0,3.0,65,0.00,,---,0.00,VWS V14.01,2013-07-07 20:49:00,
2013-07-07 16:54:00,88.3,75.1,30.05,SE,143,0.0,3.0,65,0.00,,---,0.00,VWS V14.01,2013-07-07 20:54:00,
2013-07-07 17:00:00,88.2,75.0,30.05,West,267,1.0,3.0,65,0.00,,---,0.00,VWS V14.01,2013-07-07 21:00:00,
2013-07-07 17:05:00,87.8,74.6,30.05,South,174,1.0,2.0,65,0.00,,---,0.00,VWS V14.01,2013-07-07 21:05:00,
2013-07-07 17:10:00,87.4,74.2,30.04,ESE,119,1.0,3.0,65,0.00,,---,0.00,VWS V14.01,2013-07-07 21:10:00,
2013-07-07 17:15:00,87.0,74.3,30.05,West,263,0.0,3.0,66,0.00,,---,0.00,VWS V14.01,2013-07-07 21:15:00,
2013-07-07 17:20:00,86.8,74.5,30.04,SSE,163,0.0,3.0,67,0.00,,---,0.00,VWS V14.01,2013-07-07 21:20:00,
2013-07-07 17:25:00,86.8,75.0,30.04,SW,231,2.0,3.0,68,0.00,,---,0.00,VWS V14.01,2013-07-07 21:25:00,
2013-07-07 17:30:00,87.0,74.7,30.04,SSW,213,0.0,3.0,67,0.00,,---,0.00,VWS V14.01,2013-07-07 21:30:00,
2013-07-07 17:35:00,86.9,74.6,30.04,SE,142,2.0,2.0,67,0.00,,---,0.00,VWS V14.01,2013-07-07 21:35:00,
2013-07-07 17:40:00,86.6,74.3,30.04,SSW,195,0.0,4.0,67,0.00,,---,0.00,VWS V14.01,2013-07-07 21:40:00,
2013-07-07 17:45:00,86.6,75.2,30.04,WSW,255,1.0,4.0,69,0.00,,---,0.00,VWS V14.01,2013-07-07 21:45:00,
2013-07-07 17:50:00,86.5,74.7,30.04,WNW,285,1.0,4.0,68,0.00,,---,0.00,VWS V14.01,2013-07-07 21:50:00,
2013-07-07 17:56:00,86.6,74.8,30.04,SW,214,0.0,4.0,68,0.00,,---,0.00,VWS V14.01,2013-07-07 21:56:00,
2013-07-07 18:01:00,86.5,74.2,30.03,South,171,1.0,4.0,67,0.00,,---,0.00,VWS V14.01,2013-07-07 22:01:00,
2013-07-07 18:06:00,86.4,75.5,30.03,SW,229,0.0,1.0,70,0.00,,---,0.00,VWS V14.01,2013-07-07 22:06:00,
2013-07-07 18:11:00,86.1,74.8,30.03,East,100,0.0,2.0,69,0.00,,---,0.00,VWS V14.01,2013-07-07 22:11:00,
2013-07-07 18:16:00,85.9,74.6,30.04,West,273,1.0,2.0,69,0.00,,---,0.00,VWS V14.01,2013-07-07 22:16:00,
2013-07-07 18:21:00,85.7,74.4,30.03,West,267,0.0,2.0,69,0.00,,---,0.00,VWS V14.01,2013-07-07 22:21:00,
2013-07-07 18:26:00,85.6,74.7,30.03,West,266,0.0,2.0,70,0.00,,---,0.00,VWS V14.01,2013-07-07 22:26:00,
2013-07-07 18:31:00,85.4,74.5,30.03,West,266,0.0,2.0,70,0.00,,---,0.00,VWS V14.01,2013-07-07 22:31:00,
2013-07-07 18:36:00,85.3,74.4,30.04,WSW,253,0.0,1.0,70,0.00,,---,0.00,VWS V14.01,2013-07-07 22:36:00,
2013-07-07 18:41:00,85.4,74.9,30.03,WSW,253,0.0,1.0,71,0.00,,---,0.00,VWS V14.01,2013-07-07 22:41:00,
2013-07-07 18:46:00,85.1,75.1,30.03,WSW,255,0.0,1.0,72,0.00,,---,0.00,VWS V14.01,2013-07-07 22:46:00,
2013-07-07 18:51:00,84.9,74.4,30.03,SSW,201,0.0,1.0,71,0.00,,---,0.00,VWS V14.01,2013-07-07 22:51:00,
2013-07-07 18:56:00,84.9,74.4,30.03,SE,145,0.0,1.0,71,0.00,,---,0.00,VWS V14.01,2013-07-07 22:56:00,
2013-07-07 19:01:00,84.9,74.9,30.04,South,172,0.0,0.0,72,0.00,,---,0.00,VWS V14.01,2013-07-07 23:01:00,
2013-07-07 19:06:00,85.0,75.0,30.04,South,172,0.0,0.0,72,0.00,,---,0.00,VWS V14.01,2013-07-07 23:06:00,
2013-07-07 19:12:00,84.9,74.9,30.04,South,172,0.0,0.0,72,0.00,,---,0.00,VWS V14.01,2013-07-07 23:12:00,
2013-07-07 19:17:00,84.8,75.2,30.04,South,172,0.0,0.0,73,0.00,,---,0.00,VWS V14.01,2013-07-07 23:17:00,
2013-07-07 19:22:00,84.7,75.1,30.04,South,178,0.0,1.0,73,0.00,,---,0.00,VWS V14.01,2013-07-07 23:22:00,
2013-07-07 19:27:00,84.6,75.4,30.04,SSW,193,0.0,1.0,74,0.00,,---,0.00,VWS V14.01,2013-07-07 23:27:00,
2013-07-07 19:32:00,84.4,75.6,30.04,SSW,193,0.0,0.0,75,0.00,,---,0.00,VWS V14.01,2013-07-07 23:32:00,
2013-07-07 19:37:00,84.2,75.4,30.04,SSW,193,0.0,0.0,75,0.00,,---,0.00,VWS V14.01,2013-07-07 23:37:00,
2013-07-07 19:42:00,83.9,75.5,30.04,SSW,193,0.0,0.0,76,0.00,,---,0.00,VWS V14.01,2013-07-07 23:42:00,
2013-07-07 19:47:00,83.7,75.3,30.04,SSW,193,0.0,0.0,76,0.00,,---,0.00,VWS V14.01,2013-07-07 23:47:00,
2013-07-07 19:52:00,83.5,75.5,30.04,SSW,193,0.0,0.0,77,0.00,,---,0.00,VWS V14.01,2013-07-07 23:52:00,
2013-07-07 19:57:00,83.3,75.3,30.04,SSW,193,0.0,0.0,77,0.00,,---,0.00,VWS V14.01,2013-07-07 23:57:00,
2013-07-07 20:02:00,82.9,74.9,30.05,SSW,210,0.0,0.0,77,0.00,,---,0.00,VWS V14.01,2013-07-08 00:02:00,
2013-07-07 20:07:00,82.7,75.2,30.05,SSW,210,0.0,0.0,78,0.00,,---,0.00,VWS V14.01,2013-07-08 00:07:00,
2013-07-07 20:13:00,82.5,74.6,30.05,SSW,210,0.0,0.0,77,0.00,,---,0.00,VWS V14.01,2013-07-08 00:13:00,
2013-07-07 20:18:00,82.4,74.9,30.05,SSW,210,0.0,0.0,78,0.00,,---,0.00,VWS V14.01,2013-07-08 00:18:00,
2013-07-07 20:23:00,82.2,74.7,30.05,SSW,210,0.0,0.0,78,0.00,,---,0.00,VWS V14.01,2013-07-08 00:23:00,
2013-07-07 20:28:00,82.1,74.6,30.06,SSW,210,0.0,0.0,78,0.00,,---,0.00,VWS V14.01,2013-07-08 00:28:00,
2013-07-07 20:33:00,81.9,74.8,30.06,SSW,210,0.0,0.0,79,0.00,,---,0.00,VWS V14.01,2013-07-08 00:33:00,
2013-07-07 20:38:00,81.7,74.6,30.05,SSW,210,0.0,0.0,79,0.00,,---,0.00,VWS V14.01,2013-07-08 00:38:00,
2013-07-07 20:43:00,81.5,74.7,30.06,SSW,210,0.0,0.0,80,0.00,,---,0.00,VWS V14.01,2013-07-08 00:43:00,
2013-07-07 20:48:00,81.2,74.4,30.06,SSW,210,0.0,0.0,80,0.00,,---,0.00,VWS V14.01,2013-07-08 00:48:00,
2013-07-07 20:53:00,80.9,74.5,30.06,SSW,210,0.0,0.0,81,0.00,,---,0.00,VWS V14.01,2013-07-08 00:53:00,
2013-07-07 20:58:00,80.8,74.4,30.06,SSW,210,0.0,0.0,81,0.00,,---,0.00,VWS V14.01,2013-07-08 00:58:00,
2013-07-07 21:04:00,80.6,74.2,30.06,SSW,210,0.0,0.0,81,0.00,,---,0.00,VWS V14.01,2013-07-08 01:04:00,
2013-07-07 21:09:00,80.6,74.6,30.07,SSW,210,0.0,0.0,82,0.00,,---,0.00,VWS V14.01,2013-07-08 01:09:00,
2013-07-07 21:14:00,80.5,74.5,30.07,SSW,210,0.0,0.0,82,0.00,,---,0.00,VWS V14.01,2013-07-08 01:14:00,
2013-07-07 21:19:00,80.4,74.4,30.08,SSW,210,0.0,0.0,82,0.00,,---,0.00,VWS V14.01,2013-07-08 01:19:00,
2013-07-07 21:24:00,80.3,74.3,30.08,SSW,210,0.0,0.0,82,0.00,,---,0.00,VWS V14.01,2013-07-08 01:24:00,
2013-07-07 21:29:00,80.2,74.2,30.08,SSW,210,0.0,0.0,82,0.00,,---,0.00,VWS V14.01,2013-07-08 01:29:00,
2013-07-07 21:34:00,80.0,74.4,30.08,SSW,210,0.0,0.0,83,0.00,,---,0.00,VWS V14.01,2013-07-08 01:34:00,
2013-07-07 21:39:00,79.9,74.3,30.08,SSW,211,0.0,0.0,83,0.00,,---,0.00,VWS V14.01,2013-07-08 01:39:00,
2013-07-07 21:45:00,79.7,74.4,30.08,SSW,210,0.0,0.0,84,0.00,,---,0.00,VWS V14.01,2013-07-08 01:45:00,
2013-07-07 21:50:00,79.7,74.4,30.09,SSW,210,0.0,0.0,84,0.00,,---,0.00,VWS V14.01,2013-07-08 01:50:00,
2013-07-07 21:55:00,79.7,74.4,30.09,SSW,210,0.0,0.0,84,0.00,,---,0.00,VWS V14.01,2013-07-08 01:55:00,
2013-07-07 22:00:00,79.7,74.4,30.09,SSW,211,0.0,0.0,84,0.00,,---,0.00,VWS V14.01,2013-07-08 02:00:00,
2013-07-07 22:05:00,79.6,74.3,30.09,SSW,210,0.0,0.0,84,0.00,,---,0.00,VWS V14.01,2013-07-08 02:05:00,
2013-07-07 22:10:00,79.6,74.3,30.09,SW,221,0.0,0.0,84,0.00,,---,0.00,VWS V14.01,2013-07-08 02:10:00,
2013-07-07 22:15:00,79.6,74.7,30.09,SW,221,0.0,0.0,85,0.00,,---,0.00,VWS V14.01,2013-07-08 02:15:00,
2013-07-07 22:20:00,79.6,74.7,30.09,SW,235,0.0,0.0,85,0.00,,---,0.00,VWS V14.01,2013-07-08 02:20:00,
2013-07-07 22:25:00,79.6,74.7,30.09,SW,236,0.0,1.0,85,0.00,,---,0.00,VWS V14.01,2013-07-08 02:25:00,
2013-07-07 22:30:00,79.7,74.8,30.09,West,262,1.0,2.0,85,0.00,,---,0.00,VWS V14.01,2013-07-08 02:30:00,
2013-07-07 22:35:00,79.8,74.5,30.09,South,183,1.0,1.0,84,0.00,,---,0.00,VWS V14.01,2013-07-08 02:35:00,
2013-07-07 22:40:00,79.8,74.5,30.09,South,171,0.0,2.0,84,0.00,,---,0.00,VWS V14.01,2013-07-08 02:40:00,
2013-07-07 22:45:00,79.8,74.5,30.09,SW,217,1.0,2.0,84,0.00,,---,0.00,VWS V14.01,2013-07-08 02:45:00,
2013-07-07 22:51:00,79.9,74.6,30.09,SSW,212,0.0,2.0,84,0.00,,---,0.00,VWS V14.01,2013-07-08 02:51:00,
2013-07-07 22:56:00,79.9,75.0,30.09,SSW,211,1.0,2.0,85,0.00,,---,0.00,VWS V14.01,2013-07-08 02:56:00,
2013-07-07 23:01:00,79.8,74.9,30.09,SSW,211,0.0,2.0,85,0.00,,---,0.00,VWS V14.01,2013-07-08 03:01:00,
2013-07-07 23:06:00,79.7,74.8,30.10,WSW,240,0.0,2.0,85,0.00,,---,0.00,VWS V14.01,2013-07-08 03:06:00,
2013-07-07 23:11:00,79.7,74.8,30.10,South,186,0.0,2.0,85,0.00,,---,0.00,VWS V14.01,2013-07-08 03:11:00,
2013-07-07 23:16:00,79.6,75.1,30.10,SW,215,1.0,2.0,86,0.00,,---,0.00,VWS V14.01,2013-07-08 03:16:00,
2013-07-07 23:21:00,79.6,74.7,30.10,SW,215,0.0,2.0,85,0.00,,---,0.00,VWS V14.01,2013-07-08 03:21:00,
2013-07-07 23:26:00,79.5,74.9,30.10,SW,214,0.0,2.0,86,0.00,,---,0.00,VWS V14.01,2013-07-08 03:26:00,
2013-07-07 23:31:00,79.4,74.8,30.10,SW,215,0.0,0.0,86,0.00,,---,0.00,VWS V14.01,2013-07-08 03:31:00,
2013-07-07 23:36:00,79.3,74.8,30.10,West,259,1.0,1.0,86,0.00,,---,0.00,VWS V14.01,2013-07-08 03:36:00,
2013-07-07 23:41:00,79.4,74.8,30.10,WSW,240,0.0,2.0,86,0.00,,---,0.00,VWS V14.01,2013-07-08 03:41:00,
2013-07-07 23:46:00,79.4,74.8,30.10,WSW,240,0.0,2.0,86,0.00,,---,0.00,VWS V14.01,2013-07-08 03:46:00,
2013-07-07 23:51:00,79.5,74.9,30.10,WSW,239,0.0,2.0,86,0.00,,---,0.00,VWS V14.01,2013-07-08 03:51:00,
2013-07-07 23:56:00,79.5,74.9,30.10,WSW,240,0.0,2.0,86,0.00,,---,0.00,VWS V14.01,2013-07-08 03:56:00,